    Observer details:
    246 Klet Observatory-KLENOT.  Observers M. Tichy, J. Ticha, M. Janda, M.
        Honkova.  Measurer M. Tichy.  1.06-m f/2.7 Reflector + 2048x2048 CCD.
    291 LPL/Spacewatch II.  Observers J. V. Scotti, R. A. Mastaler.  1.8-m f/2.7
        reflector + CCD.
    587 Sormano.  Observers P. Sicoli, A. Testa.  Measurer P. Sicoli.  0.5-m f/6.8
        reflector + CCD.
    595 Farra d'Isonzo.  Observers U. Montanar, E. Pettarin.  Measurer E.
        Pettarin.  0.61-m f/4.5 reflector + CCD.
    658 National Research Council of Canada.  Observers D. D. Balam, C. E. Spratt.
        Measurers D. D. Balam, D. W. E. Green.  1.82-m Reflector + CCD.
    691 Steward Observatory, Kitt Peak-Spacewatch.  Observer M. T. Read.  0.9-m
        f/3 reflector + CCD.
    A77 Observatoire Chante-Perdrix, Dauban.  Observer F. Kugel.  0.4-m f/2.8
        reflector + CCD.
    C82 Osservatorio Astronomico Nastro Verde, Sorrento.  Observer N. Ruocco.
        0.35-m f/6.3 0.35 m f/6.3 Schmidt-Cassegrain + CCD.
    F52 Pan-STARRS 2, Haleakala.  Observers J. Bulger, T. Lowe, A. Schultz, I.
        Smith.  Measurers K. Chambers, S. Chastel, T. de Boer, J. Fairlamb, H.
        Gao, M. Huber, C.-C. Lin, E. Magnier, Y. Ramanjooloo, R. Wainscoat, R.
        Weryk.  1.8-m Ritchey-Chretien + CCD.
    G96 Mt. Lemmon Survey.  Observer A. Serrano.  Measurers E. J. Christensen, D.
        Fay, J. B. Fazekas, D. C. Fuls, A. R. Gibbs, A. D. Grauer, H. Groeller, J.
        K. Hogan, R. A. Kowalski, S. M. Larson, G. J. Leonard, D. Rankin, R. L.
        Seaman, A. Serrano, F. C. Shelly, K. W. Wierzchos.  1.5-m reflector + 10K
        CCD.
    K91 Sutherland-LCO A.  Observer J. D. Armstrong.  1.0-m f/8 modified Ritchey-
        Chretien + CCD.
    K93 Sutherland-LCO C.  Observers J. D. Armstrong, A. M. Tokuoka.  PCCP
        P21Ddk2.
    L01 Visnjan Observatory, Tican.  Observers K. Korlevic, L. Poropat.  Measurer
        K. Korlevic.  1.0-m f/2.9 reflector + CCD.
    Q62 iTelescope Observatory, Siding Spring.  Observer H. Sato.  0.51-m f/6.8
        astrograph + CCD + f/4.5 focal reducer.
    T14 Canada-France-Hawaii Telescope, Maunakea.  Observers R. Wainscoat, H.
        Januszewski, T. Burdullis.  Measurers R. Weryk, R. Wainscoat.  3.6-m
        Canada-France-Hawaii Telescope + CCD.
    V00 Kitt Peak-Bok.  Observer H. Groeller.  Measurers M. J. Brucker, E. J.
        Christensen, C. E. Woodward, D. Fay, J. B. Fazekas, D. C. Fuls, A. R.
        Gibbs, A. D. Grauer, H. Groeller, J. K. Hogan, R. A. Kowalski, S. M.
        Larson, G. J. Leonard, R. S. McMillan, D. Rankin, R. L. Seaman, A.
        Serrano, F. C. Shelly, K. W. Wierzchos.  2.25-m reflector + 4x4K mosaic
        CCD.
    W62 Comet Hunter Observatory2, New Ringgold.  Observer J. Maikner.  0.30-m
        f/3.8 Riccardi-Honders + CCD.
    
    Orbital elements:
        P/2023 B3 (PANSTARRS)                                                       
    Epoch 2023 Feb. 25.0 TT = JDT 2460000.5                                         
    T 2020 Aug. 28.72575 TT                                 Rudenko                 
    q   3.9576714            (2000.0)            P               Q                  
    n   0.10184932     Peri.  238.71207     +0.83717417     -0.54239824             
    a   4.5411304      Node   153.93467     +0.54026138     +0.80007251             
    e   0.1284832      Incl.    9.20784     +0.08518836     +0.25629694             
    P   9.68                                                                        
    From 63 observations 2023 Jan. 23-Feb. 15, mean residual 0".4.                  
                                                                                    
    Ephemeris:
    Date    TT    R. A. (2000) Decl.     Delta      r    Elong.  Phase   m1    m2
    2023 01 18    09 30 10.2 +11 04 30   3.6890  4.6037   155.7     5.0  20.0
    ...
    2023 02 02    09 22 13.1 +11 57 11   3.6400  4.6189   172.6     1.6  20.0
    ...
    2023 02 10    09 17 40.3 +12 27 56   3.6424  4.6270   175.9     0.9  20.0
    ...
    2023 02 16    09 14 18.2 +12 51 11   3.6573  4.6330   169.9     2.1  20.0
    2023 02 17    09 13 45.3 +12 55 02   3.6609  4.6340   168.8     2.4  20.0
    2023 02 18    09 13 12.5 +12 58 52   3.6648  4.6350   167.7     2.6  20.0
    ...
    2023 02 24    09 10 03.5 +13 21 29   3.6946  4.6410   160.9     4.0  20.0
    ...
    2023 03 04    09 06 17.7 +13 49 53   3.7506  4.6490   152.0     5.8  20.0
    ...
    2023 03 19    09 01 06.3 +14 35 06   3.9001  4.6639   135.6     8.6  20.1
    
    M. P. C. Staff               (C) Copyright 2023 MPC           M.P.E.C. 2023-D10
    


    Read MPEC 2023-D09 Read MPEC 2023-D11


    MPEC number:

    Enter an MPEC number in one of the following forms:

    • 1997-B01 (the full form)
    • J97B01 (the packed version of the full form)
    • B01 (the abbreviated form)